Home > Weather > Dublin > Past weeks

Flag for Ireland Past Weather in Dublin, Ireland — Yesterday and Last 2 Weeks

Now
55 °F

Passing clouds.


Feels Like: 52 °F
Forecast: 45 / 54 °F
Wind: 12 mph from Northeast

Location: Dublin Airport

Current Time: May 24, 2016 at 8:38:31 PM

Latest Report: May 24, 2016 at 8:00 PM


Visibility: N/A

Pressure: 30.15 "Hg

Humidity: 51%

Dew Point: 37 °F

Location of DublinLocation

Past Weather in Dublin — Graph

°F

Dublin Temperature Yesterday

Maximum temperature yesterday: 59 °F (at 6:30 PM)
Minimum temperature yesterday: 39 °F (at 11:30 PM)
Average temperature yesterday: 50 °F

High & Low Weather Summary for the Past Weeks

 TemperatureHumidityPressure
High64 °F (May 19, 3:30 PM)100% (May 10, 9:00 PM)30.24 "Hg (May 10, 9:00 PM)
Low36 °F (May 15, 5:00 AM)47% (May 14, 4:30 PM)29.47 "Hg (May 21, 4:30 AM)
Average52 °F77%29.89 "Hg
* Reported May 9 6:00 PM — May 24 6:30 PM, Dublin, Weather by CustomWeather, © 2016

Note: Actual official high and low records may vary slightly from our data, if they occured in-between our weather recording intervals... More about our weather records

Advertising

Dublin Weather History for the Previous 24 Hours

Scroll right to see more
 ConditionsComfort  
Time TempWeatherWind HumidityBarometerVisibility
6:30 PM
Tue, May 24
57 °FPassing clouds.10 mph55%30.18 "HgN/A
6:00 PM59 °FPassing clouds.13 mph51%30.18 "HgN/A
5:30 PM57 °FPassing clouds.14 mph67%30.18 "HgN/A
5:00 PM57 °FPassing clouds.13 mph67%30.18 "HgN/A
4:30 PM57 °FPassing clouds.15 mph72%30.18 "HgN/A
4:00 PM57 °FPassing clouds.13 mph72%30.18 "HgN/A
3:30 PM57 °FPassing clouds.14 mph72%30.18 "HgN/A
3:00 PM59 °FPassing clouds.14 mph68%30.18 "HgN/A
2:30 PM57 °FPassing clouds.15 mph67%30.18 "HgN/A
2:00 PM57 °FPassing clouds.15 mph63%30.18 "HgN/A
1:30 PM59 °FPassing clouds.13 mph63%30.18 "HgN/A
1:00 PM59 °FPassing clouds.12 mph63%30.21 "HgN/A
12:30 PM57 °FPassing clouds.9 mph63%30.21 "HgN/A
12:00 PM59 °FPassing clouds.10 mph59%30.21 "HgN/A
11:30 AM57 °FPassing clouds.9 mph67%30.21 "HgN/A
11:00 AM57 °FPassing clouds.8 mph67%30.21 "HgN/A
10:30 AM55 °FPassing clouds.7 mph72%30.21 "HgN/A
10:00 AM55 °FScattered clouds.6 mph72%30.21 "HgN/A
9:30 AM54 °FScattered clouds.7 mph77%30.21 "HgN/A
9:00 AM52 °FPartly sunny.7 mph82%30.21 "HgN/A
8:30 AM52 °FPartly sunny.7 mph82%30.21 "HgN/A
8:00 AM50 °FPartly sunny.8 mph88%30.21 "HgN/A
7:30 AM50 °FPartly sunny.8 mph88%30.21 "HgN/A
7:00 AM50 °FPassing clouds.7 mph88%30.21 "HgN/A
6:30 AM46 °FPassing clouds.7 mph93%30.21 "HgN/A
6:00 AM43 °FPassing clouds.8 mph93%30.21 "HgN/A
5:30 AM39 °FPassing clouds.6 mph100%30.21 "HgN/A
5:00 AM37 °FPassing clouds.5 mph100%30.21 "HgN/A
4:30 AM36 °FPassing clouds.2 mph100%30.21 "HgN/A
4:00 AM37 °FPassing clouds.2 mph93%30.21 "HgN/A
3:30 AM39 °FPassing clouds.5 mph93%30.21 "HgN/A
3:00 AM37 °FPassing clouds.7 mph93%30.21 "HgN/A
2:30 AM37 °FPassing clouds.3 mph93%30.21 "HgN/A
2:00 AM39 °FPassing clouds.5 mph93%30.21 "HgN/A
1:30 AM39 °FPassing clouds.5 mph93%30.21 "HgN/A
1:00 AM39 °FPassing clouds.2 mph93%30.21 "HgN/A
12:30 AM39 °FPassing clouds.2 mph93%30.21 "HgN/A
12:00 AM43 °FPassing clouds.2 mph87%30.21 "HgN/A
11:30 PM
Mon, May 23
39 °FPassing clouds.2 mph87%30.21 "HgN/A
11:00 PM43 °FPassing clouds.3 mph81%30.21 "HgN/A
10:30 PM45 °FPassing clouds.3 mph81%30.21 "HgN/A
10:00 PM46 °FPassing clouds.3 mph76%30.21 "HgN/A
9:30 PM50 °FPassing clouds.3 mph71%30.21 "HgN/A
9:00 PM54 °FPassing clouds.5 mph67%30.21 "HgN/A
8:30 PM54 °FPassing clouds.6 mph67%30.21 "HgN/A
8:00 PM55 °FScattered clouds.6 mph63%30.21 "HgN/A
Weather by CustomWeather, © 2016

See weather overviewHow to use our weather pages